Home   Weather   Hebron   Past weeks

Flag for Palestinian Territories Past Weather in Hebron, West Bank, Palestinian Territories — Yesterday and Last 2 Weeks

Now
57 °F

Passing clouds.


Feels Like: 57 °F
Forecast: 41 / 56 °F
Wind: 3 mph from North

Location: Ben Gurion International Airport

Current Time: Dec 11, 2016 at 6:17:52 am

Latest Report: Dec 11, 2016 at 5:20 am


Visibility: N/A

Pressure: 30.15 "Hg (27.11 "Hg at 894m altitude)

Humidity: 63%

Dew Point: 45 °F

Location of HebronLocation

Past Weather in Hebron — Graph

°F

Hebron Temperature Yesterday

Maximum temperature yesterday: 64 °F (at 10:20 am)
Minimum temperature yesterday: 43 °F (at 6:50 am)
Average temperature yesterday: 56 °F

High & Low Weather Summary for the Past Weeks

 TemperatureHumidityPressure
High77 °F (Nov 28, 12:50 pm)94% (Dec 2, 12:20 am)30.33 "Hg (Dec 2, 12:20 am)
Low39 °F (Nov 26, 6:20 am)4% (Nov 26, 10:20 am)29.74 "Hg (Dec 1, 1:50 pm)
Average60 °F58%30.10 "Hg
* Reported Nov 26 5:20 am — Dec 11 5:20 am, Hebron, Weather by CustomWeather, © 2016

Note: Actual official high and low records may vary slightly from our data, if they occured in-between our weather recording intervals... More about our weather records

Advertising

Hebron Weather History for the Previous 24 Hours

Scroll right to see more
 ConditionsComfort  
Time TempWeatherWind HumidityBarometerVisibility
5:20 am
Sun, Dec 11
57 °FPassing clouds.3 mph63%30.15 "HgN/A
4:50 am57 °FPassing clouds.2 mph63%30.15 "HgN/A
4:20 am55 °FPassing clouds.5 mph72%30.15 "HgN/A
3:50 am55 °FPassing clouds.5 mph72%30.15 "HgN/A
3:20 am55 °FPassing clouds.6 mph72%30.15 "HgN/A
2:50 am55 °FPassing clouds.6 mph72%30.18 "HgN/A
2:20 am55 °FPassing clouds.5 mph72%30.18 "HgN/A
1:50 am55 °FPassing clouds.5 mph72%30.18 "HgN/A
1:20 am55 °FPassing clouds.6 mph72%30.18 "HgN/A
12:50 am55 °FPassing clouds.5 mph72%30.18 "HgN/A
12:20 am57 °FPassing clouds.5 mph67%30.18 "HgN/A
11:50 pm
Sat, Dec 10
57 °FPassing clouds.7 mph72%30.18 "HgN/A
11:20 pm57 °FPassing clouds.5 mph72%30.18 "HgN/A
10:50 pm59 °FPassing clouds.6 mph68%30.18 "HgN/A
10:20 pm59 °FPassing clouds.6 mph68%30.18 "HgN/A
9:50 pm59 °FPassing clouds.7 mph68%30.18 "HgN/A
9:20 pm59 °FPassing clouds.6 mph68%30.18 "HgN/A
8:50 pm59 °FPassing clouds.6 mph68%30.18 "HgN/A
8:20 pm59 °FPassing clouds.6 mph68%30.18 "HgN/A
7:50 pm59 °FPassing clouds.5 mph68%30.18 "HgN/A
7:20 pm59 °FPassing clouds.1 mph59%30.18 "HgN/A
6:50 pm61 °FPassing clouds.5 mph52%30.18 "HgN/A
6:20 pm61 °FPassing clouds.2 mph63%30.18 "HgN/A
5:50 pm61 °FPassing clouds.5 mph68%30.18 "HgN/A
5:20 pm61 °FPassing clouds.6 mph68%30.15 "HgN/A
4:50 pm61 °FPassing clouds.5 mph68%30.15 "HgN/A
4:20 pm63 °FScattered clouds.6 mph64%30.15 "HgN/A
3:50 pm63 °FScattered clouds.9 mph59%30.15 "HgN/A
3:20 pm64 °FScattered clouds.8 mph56%30.15 "HgN/A
2:50 pm64 °FPassing clouds.8 mph56%30.15 "HgN/A
2:20 pm64 °FPassing clouds.9 mph49%30.15 "HgN/A
1:50 pm64 °FPassing clouds.7 mph49%30.15 "HgN/A
1:20 pm64 °FScattered clouds.9 mph46%30.15 "HgN/A
12:50 pm64 °FScattered clouds.10 mph46%30.15 "HgN/A
12:20 pm64 °FPassing clouds.6 mph46%30.18 "HgN/A
11:50 am64 °FPassing clouds.6 mph46%30.18 "HgN/A
11:20 am64 °FPassing clouds.2 mph46%30.18 "HgN/A
10:50 am63 °FPassing clouds.1 mph49%30.21 "HgN/A
10:20 am64 °FPassing clouds.1 mph46%30.21 "HgN/A
9:50 am61 °FPassing clouds.2 mph48%30.21 "HgN/A
9:20 am59 °FPassing clouds.3 mph51%30.24 "HgN/A
8:50 am55 °FPassing clouds.3 mph55%30.24 "HgN/A
8:20 am52 °FPassing clouds.3 mph62%30.21 "HgN/A
7:50 am50 °FPassing clouds.5 mph67%30.21 "HgN/A
7:20 am46 °FPassing clouds.2 mph76%30.21 "HgN/A
6:50 am43 °FSunny.1 mph81%30.21 "Hg10 mi
6:20 am46 °FClear.2 mph71%30.21 "Hg10 mi
Weather by CustomWeather, © 2016

See weather overviewHow to use our weather pages